Location: �A�n Sefra
(34.9681°N, 0.4346°E)
Time: 01:56:56
(UTC+00:00)

Cosmos 1777 Rocket - Pass Details

Date: 21 October 2019
Orbit: 759 x 775 km, 74.0° (Epoch: 14 November)

Event Time Altitude Azimuth Distance (km) Brightness Sun altitude
Rises 17:59:20 0° 346° (NNW) 3,227 7.3 -9.5°
Reaches altitude 10° 18:01:45 10° 350° (N) 2,296 6.5 -10.0°
Maximum altitude 18:06:53 61° 71° (ENE) 861 4.0 -11.0°
Drops below altitude 10° 18:12:00 10° 151° (SSE) 2,280 6.2 -12.1°
Sets 18:14:23 0° 155° (SSE) 3,202 7.0 -12.6°
